Time,TemperatureF,DewpointF,PressureIn,WindDirection,WindDirectionDegrees,WindSpeedMPH,WindSpeedGustMPH,Humidity,HourlyPrecipIn,Conditions,Clouds,dailyrainin,SoftwareType,DateUTC
2013-02-05 00:11:00,35.2,35.0,29.90,WNW,293,0.0,0.0,98,0.00,,,0.00,weatherlink.com 1.10,2013-02-05 05:11:00,
2013-02-05 00:26:00,34.9,34.0,29.89,NE,51,0.0,0.0,98,0.00,,,0.00,weatherlink.com 1.10,2013-02-05 05:26:00,
2013-02-05 00:41:00,35.2,35.0,29.89,SSW,210,0.0,0.0,98,0.00,,,0.00,weatherlink.com 1.10,2013-02-05 05:41:00,
2013-02-05 00:56:00,34.9,34.0,29.89,SSW,210,0.0,0.0,98,0.00,,,0.00,weatherlink.com 1.10,2013-02-05 05:56:00,
2013-02-05 01:11:00,35.2,35.0,29.89,South,186,0.0,0.0,98,0.00,,,0.00,weatherlink.com 1.10,2013-02-05 06:11:00,
2013-02-05 01:26:00,35.2,35.0,29.89,South,186,0.0,0.0,98,0.00,,,0.00,weatherlink.com 1.10,2013-02-05 06:26:00,
2013-02-05 01:41:00,35.1,35.0,29.90,South,187,0.0,0.0,98,0.00,,,0.00,weatherlink.com 1.10,2013-02-05 06:41:00,
2013-02-05 01:56:00,35.2,35.0,29.89,South,187,0.0,0.0,98,0.00,,,0.00,weatherlink.com 1.10,2013-02-05 06:56:00,
2013-02-05 02:11:00,35.5,35.0,29.89,South,187,0.0,0.0,98,0.00,,,0.00,weatherlink.com 1.10,2013-02-05 07:11:00,
2013-02-05 02:26:00,35.4,35.0,29.89,SSW,204,0.0,0.0,98,0.00,,,0.00,weatherlink.com 1.10,2013-02-05 07:26:00,
2013-02-05 02:41:00,35.3,35.0,29.90,SW,224,0.0,0.0,98,0.00,,,0.00,weatherlink.com 1.10,2013-02-05 07:41:00,
2013-02-05 02:56:00,35.2,35.0,29.90,SSW,208,0.0,0.0,98,0.00,,,0.00,weatherlink.com 1.10,2013-02-05 07:56:00,
2013-02-05 03:11:00,35.4,35.0,29.89,SSW,210,0.0,0.0,98,0.00,,,0.00,weatherlink.com 1.10,2013-02-05 08:11:00,
2013-02-05 03:26:00,35.8,35.0,29.88,SSW,210,0.0,0.0,98,0.00,,,0.00,weatherlink.com 1.10,2013-02-05 08:26:00,
2013-02-05 03:41:00,35.9,35.0,29.88,WNW,290,1.0,4.0,98,0.00,,,0.00,weatherlink.com 1.10,2013-02-05 08:41:00,
2013-02-05 03:56:00,35.6,35.0,29.88,WNW,294,2.0,3.0,98,0.00,,,0.00,weatherlink.com 1.10,2013-02-05 08:56:00,
2013-02-05 04:11:00,35.4,35.0,29.88,WNW,293,2.0,4.0,98,0.01,,,0.01,weatherlink.com 1.10,2013-02-05 09:11:00,
2013-02-05 04:26:00,34.7,34.0,29.89,NE,43,3.0,5.0,98,0.01,,,0.01,weatherlink.com 1.10,2013-02-05 09:26:00,
2013-02-05 04:42:00,34.3,34.0,29.90,NNW,333,1.0,2.0,98,0.01,,,0.01,weatherlink.com 1.10,2013-02-05 09:42:00,
2013-02-05 04:56:00,33.9,33.0,29.91,WNW,302,1.0,5.0,98,0.01,,,0.01,weatherlink.com 1.10,2013-02-05 09:56:00,
2013-02-05 05:11:00,33.4,33.0,29.90,WNW,287,1.0,6.0,98,0.00,,,0.01,weatherlink.com 1.10,2013-02-05 10:11:00,
2013-02-05 05:26:00,32.7,32.0,29.90,NNE,15,6.0,8.0,98,0.00,,,0.01,weatherlink.com 1.10,2013-02-05 10:26:00,
2013-02-05 05:42:00,31.8,31.0,29.90,NE,44,2.0,6.0,98,0.00,,,0.01,weatherlink.com 1.10,2013-02-05 10:42:00,
2013-02-05 05:56:00,31.5,31.0,29.89,North,354,3.0,3.0,98,0.00,,,0.01,weatherlink.com 1.10,2013-02-05 10:56:00,
2013-02-05 06:11:00,31.4,31.0,29.90,NNW,333,2.0,3.0,98,0.00,,,0.01,weatherlink.com 1.10,2013-02-05 11:11:00,
2013-02-05 06:26:00,31.3,31.0,29.90,North,352,1.0,3.0,98,0.00,,,0.01,weatherlink.com 1.10,2013-02-05 11:26:00,
2013-02-05 06:41:00,31.3,31.0,29.90,NW,325,0.0,1.0,98,0.00,,,0.01,weatherlink.com 1.10,2013-02-05 11:41:00,
2013-02-05 06:57:00,31.3,31.0,29.90,NNE,20,0.0,2.0,98,0.00,,,0.01,weatherlink.com 1.10,2013-02-05 11:57:00,
2013-02-05 07:12:00,31.2,31.0,29.91,West,266,1.0,2.0,98,0.00,,,0.01,weatherlink.com 1.10,2013-02-05 12:12:00,
2013-02-05 07:27:00,31.2,31.0,29.92,SW,221,0.0,1.0,98,0.00,,,0.01,weatherlink.com 1.10,2013-02-05 12:27:00,
2013-02-05 07:42:00,30.9,30.0,29.91,SE,135,0.0,1.0,98,0.00,,,0.01,weatherlink.com 1.10,2013-02-05 12:42:00,
2013-02-05 07:57:00,30.6,30.0,29.93,North,354,1.0,3.0,98,0.00,,,0.01,weatherlink.com 1.10,2013-02-05 12:57:00,
2013-02-05 08:12:00,30.5,30.0,29.94,WNW,282,2.0,2.0,97,0.00,,,0.01,weatherlink.com 1.10,2013-02-05 13:12:00,
2013-02-05 08:27:00,30.2,29.0,29.94,WNW,294,3.0,4.0,96,0.00,,,0.01,weatherlink.com 1.10,2013-02-05 13:27:00,
2013-02-05 08:42:00,30.2,29.0,29.94,WSW,253,0.0,3.0,95,0.00,,,0.01,weatherlink.com 1.10,2013-02-05 13:42:00,
2013-02-05 08:57:00,29.8,28.0,29.95,WNW,295,1.0,2.0,94,0.00,,,0.01,weatherlink.com 1.10,2013-02-05 13:57:00,
2013-02-05 09:12:00,30.0,28.0,29.95,West,281,0.0,5.0,93,0.01,,,0.02,weatherlink.com 1.10,2013-02-05 14:12:00,
2013-02-05 09:27:00,30.7,28.0,29.95,WSW,249,0.0,4.0,91,0.01,,,0.02,weatherlink.com 1.10,2013-02-05 14:27:00,
2013-02-05 09:42:00,31.7,29.0,29.95,West,262,1.0,5.0,89,0.01,,,0.02,weatherlink.com 1.10,2013-02-05 14:42:00,
2013-02-05 09:57:00,32.7,30.0,29.95,NNW,335,0.0,1.0,88,0.01,,,0.02,weatherlink.com 1.10,2013-02-05 14:57:00,
2013-02-05 10:27:00,32.8,29.0,29.96,West,264,2.0,5.0,85,0.00,,,0.02,weatherlink.com 1.10,2013-02-05 15:27:00,
2013-02-05 10:42:00,33.2,30.0,29.96,WNW,285,0.0,3.0,86,0.00,,,0.02,weatherlink.com 1.10,2013-02-05 15:42:00,
2013-02-05 10:57:00,33.8,30.0,29.96,West,277,3.0,3.0,87,0.00,,,0.02,weatherlink.com 1.10,2013-02-05 15:57:00,
2013-02-05 11:12:00,33.7,30.0,29.96,NNE,15,0.0,3.0,85,0.01,,,0.03,weatherlink.com 1.10,2013-02-05 16:12:00,
2013-02-05 11:27:00,34.0,30.0,29.96,WNW,287,3.0,3.0,85,0.01,,,0.03,weatherlink.com 1.10,2013-02-05 16:27:00,
2013-02-05 11:42:00,34.1,30.0,29.97,West,270,0.0,2.0,84,0.01,,,0.03,weatherlink.com 1.10,2013-02-05 16:42:00,
2013-02-05 11:57:00,34.1,30.0,29.97,NW,326,1.0,4.0,84,0.01,,,0.03,weatherlink.com 1.10,2013-02-05 16:57:00,
2013-02-05 12:12:00,34.0,30.0,29.96,NW,318,3.0,5.0,84,0.00,,,0.03,weatherlink.com 1.10,2013-02-05 17:12:00,
2013-02-05 12:27:00,34.7,30.0,29.96,West,278,1.0,3.0,83,0.00,,,0.03,weatherlink.com 1.10,2013-02-05 17:27:00,
2013-02-05 12:42:00,34.5,30.0,29.95,NNW,330,1.0,4.0,84,0.01,,,0.04,weatherlink.com 1.10,2013-02-05 17:42:00,
2013-02-05 12:57:00,34.8,30.0,29.95,WNW,290,1.0,2.0,84,0.01,,,0.04,weatherlink.com 1.10,2013-02-05 17:57:00,
2013-02-05 13:12:00,35.1,30.0,29.94,SSE,167,2.0,3.0,83,0.01,,,0.04,weatherlink.com 1.10,2013-02-05 18:12:00,
2013-02-05 13:27:00,35.3,31.0,29.93,SSW,200,2.0,4.0,84,0.02,,,0.05,weatherlink.com 1.10,2013-02-05 18:27:00,
2013-02-05 13:43:00,35.6,31.0,29.91,SSE,151,4.0,6.0,82,0.01,,,0.05,weatherlink.com 1.10,2013-02-05 18:43:00,
2013-02-05 13:57:00,35.7,31.0,29.91,SSW,195,1.0,5.0,84,0.01,,,0.05,weatherlink.com 1.10,2013-02-05 18:57:00,
2013-02-05 14:12:00,36.1,32.0,29.91,SSE,155,2.0,5.0,84,0.01,,,0.05,weatherlink.com 1.10,2013-02-05 19:12:00,
2013-02-05 14:27:00,36.0,32.0,29.90,SSE,160,3.0,7.0,84,0.00,,,0.05,weatherlink.com 1.10,2013-02-05 19:27:00,
2013-02-05 14:42:00,36.0,32.0,29.91,SSE,162,2.0,7.0,85,0.00,,,0.05,weatherlink.com 1.10,2013-02-05 19:42:00,
2013-02-05 14:57:00,36.3,32.0,29.91,SSW,200,2.0,8.0,85,0.00,,,0.05,weatherlink.com 1.10,2013-02-05 19:57:00,
2013-02-05 15:12:00,36.6,33.0,29.91,SW,222,1.0,6.0,85,0.00,,,0.05,weatherlink.com 1.10,2013-02-05 20:12:00,
2013-02-05 15:27:00,36.9,33.0,29.90,SSE,155,2.0,4.0,85,0.00,,,0.05,weatherlink.com 1.10,2013-02-05 20:27:00,
2013-02-05 15:42:00,37.3,33.0,29.90,SSW,195,2.0,3.0,85,0.00,,,0.05,weatherlink.com 1.10,2013-02-05 20:42:00,
2013-02-05 15:57:00,37.5,33.0,29.90,SSW,203,1.0,4.0,85,0.00,,,0.05,weatherlink.com 1.10,2013-02-05 20:57:00,
2013-02-05 16:12:00,37.6,33.0,29.89,South,183,1.0,4.0,84,0.00,,,0.05,weatherlink.com 1.10,2013-02-05 21:12:00,
2013-02-05 16:27:00,37.7,34.0,29.88,SE,146,1.0,2.0,85,0.00,,,0.05,weatherlink.com 1.10,2013-02-05 21:27:00,
2013-02-05 16:42:00,37.6,34.0,29.88,SW,217,1.0,3.0,85,0.00,,,0.05,weatherlink.com 1.10,2013-02-05 21:42:00,
2013-02-05 16:57:00,37.7,34.0,29.87,SE,134,2.0,3.0,85,0.00,,,0.05,weatherlink.com 1.10,2013-02-05 21:57:00,
2013-02-05 17:13:00,37.7,34.0,29.87,SSE,152,1.0,3.0,86,0.00,,,0.05,weatherlink.com 1.10,2013-02-05 22:13:00,
2013-02-05 17:27:00,37.7,34.0,29.86,SE,137,3.0,6.0,86,0.00,,,0.05,weatherlink.com 1.10,2013-02-05 22:27:00,
2013-02-05 17:43:00,37.9,34.0,29.87,SE,136,1.0,4.0,87,0.00,,,0.05,weatherlink.com 1.10,2013-02-05 22:43:00,
2013-02-05 17:57:00,38.1,35.0,29.88,SW,225,1.0,2.0,87,0.00,,,0.05,weatherlink.com 1.10,2013-02-05 22:57:00,
2013-02-05 18:13:00,38.0,35.0,29.88,SW,225,0.0,1.0,87,0.00,,,0.05,weatherlink.com 1.10,2013-02-05 23:13:00,
2013-02-05 18:28:00,37.9,34.0,29.88,SW,225,0.0,0.0,87,0.00,,,0.05,weatherlink.com 1.10,2013-02-05 23:28:00,
2013-02-05 18:43:00,37.9,34.0,29.89,West,260,0.0,4.0,87,0.00,,,0.05,weatherlink.com 1.10,2013-02-05 23:43:00,
2013-02-05 18:58:00,38.0,35.0,29.89,SW,221,0.0,2.0,87,0.00,,,0.05,weatherlink.com 1.10,2013-02-05 23:58:00,
2013-02-05 19:13:00,38.0,35.0,29.90,West,262,1.0,1.0,87,0.00,,,0.05,weatherlink.com 1.10,2013-02-06 00:13:00,
2013-02-05 19:28:00,37.9,34.0,29.91,WNW,283,1.0,3.0,87,0.00,,,0.05,weatherlink.com 1.10,2013-02-06 00:28:00,
2013-02-05 19:43:00,37.7,34.0,29.92,NW,321,2.0,3.0,87,0.00,,,0.05,weatherlink.com 1.10,2013-02-06 00:43:00,
2013-02-05 19:58:00,38.3,35.0,29.93,WNW,288,2.0,5.0,87,0.00,,,0.05,weatherlink.com 1.10,2013-02-06 00:58:00,
2013-02-05 20:13:00,38.2,34.0,29.94,WNW,293,1.0,4.0,86,0.00,,,0.05,weatherlink.com 1.10,2013-02-06 01:13:00,
2013-02-05 20:28:00,37.8,34.0,29.95,WNW,293,1.0,7.0,87,0.00,,,0.05,weatherlink.com 1.10,2013-02-06 01:28:00,
2013-02-05 20:43:00,37.7,34.0,29.96,North,352,3.0,9.0,86,0.00,,,0.05,weatherlink.com 1.10,2013-02-06 01:43:00,
2013-02-05 20:58:00,37.8,34.0,29.97,NW,325,2.0,8.0,85,0.00,,,0.05,weatherlink.com 1.10,2013-02-06 01:58:00,
2013-02-05 21:13:00,38.0,33.0,29.97,WSW,239,4.0,7.0,83,0.00,,,0.05,weatherlink.com 1.10,2013-02-06 02:13:00,
2013-02-05 21:28:00,37.9,33.0,29.98,WNW,293,1.0,7.0,83,0.00,,,0.05,weatherlink.com 1.10,2013-02-06 02:28:00,
2013-02-05 21:43:00,38.0,33.0,29.99,WNW,285,3.0,7.0,82,0.00,,,0.05,weatherlink.com 1.10,2013-02-06 02:43:00,
2013-02-05 21:58:00,37.9,33.0,29.99,West,262,3.0,4.0,83,0.00,,,0.05,weatherlink.com 1.10,2013-02-06 02:58:00,
2013-02-05 22:13:00,37.7,33.0,30.00,West,259,0.0,4.0,83,0.00,,,0.05,weatherlink.com 1.10,2013-02-06 03:13:00,
2013-02-05 22:28:00,37.7,33.0,30.00,West,260,0.0,4.0,84,0.00,,,0.05,weatherlink.com 1.10,2013-02-06 03:28:00,
2013-02-05 22:43:00,37.7,33.0,30.01,West,278,2.0,5.0,84,0.00,,,0.05,weatherlink.com 1.10,2013-02-06 03:43:00,
2013-02-05 23:02:00,37.7,33.0,30.01,NW,305,2.0,3.0,84,0.00,,,0.05,weatherlink.com 1.10,2013-02-06 04:02:00,
2013-02-05 23:13:00,37.7,33.0,30.01,West,281,1.0,2.0,84,0.00,,,0.05,weatherlink.com 1.10,2013-02-06 04:13:00,
2013-02-05 23:28:00,37.7,33.0,30.02,WNW,303,1.0,3.0,84,0.00,,,0.05,weatherlink.com 1.10,2013-02-06 04:28:00,
2013-02-05 23:43:00,37.8,33.0,30.02,West,276,3.0,7.0,84,0.00,,,0.05,weatherlink.com 1.10,2013-02-06 04:43:00,
2013-02-05 23:58:00,38.0,34.0,30.03,WNW,297,3.0,10.0,84,0.00,,,0.05,weatherlink.com 1.10,2013-02-06 04:58:00,